Date,Installs,Update checks
2022-02-04,4,1
2022-02-05,11,5
2022-02-06,9,7
2022-02-07,4,7
2022-02-08,6,8
2022-02-09,6,7
2022-02-10,4,7
2022-02-11,5,9
2022-02-12,7,9
2022-02-13,8,10
2022-02-14,7,11
2022-02-15,4,14
2022-02-16,7,11
2022-02-17,7,14
2022-02-18,7,17
2022-02-19,17,19
2022-02-20,14,24
2022-02-21,11,21
2022-02-22,10,24
2022-02-23,11,23
2022-02-24,7,28
2022-02-25,11,24
2022-02-26,12,21
2022-02-27,8,32
2022-02-28,11,33
2022-03-01,12,34
2022-03-02,11,33
2022-03-03,17,40
2022-03-04,9,31
2022-03-05,12,38
2022-03-06,9,39
2022-03-07,13,42
2022-03-08,6,44
2022-03-09,3,41
2022-03-10,8,45
2022-03-11,13,48
2022-03-12,18,42
2022-03-13,9,55
2022-03-14,11,45
2022-03-15,4,49
2022-03-16,4,52
2022-03-17,7,50
2022-03-18,8,58
2022-03-19,7,44
2022-03-20,10,47
2022-03-21,14,50
2022-03-22,9,51
2022-03-23,9,63
2022-03-24,9,47
2022-03-25,6,56
2022-03-26,8,61
2022-03-27,5,49
2022-03-28,5,56
2022-03-29,3,42
2022-03-30,2,54
2022-03-31,8,60
2022-04-01,13,53
2022-04-02,12,58
2022-04-03,11,54
2022-04-04,13,57
2022-04-05,11,60
2022-04-06,5,57
2022-04-07,10,61
2022-04-08,9,54
2022-04-09,8,61
2022-04-10,3,62
2022-04-11,1,64
2022-04-12,5,63
2022-04-13,3,59
2022-04-14,4,61
2022-04-15,5,61
2022-04-16,6,67
2022-04-17,7,63
2022-04-18,7,67
2022-04-19,7,71
2022-04-20,5,67
2022-04-21,5,65
2022-04-22,2,68
2022-04-23,4,56
2022-04-24,1,65
2022-04-25,11,71
2022-04-26,13,67
2022-04-27,6,68
2022-04-28,2,71
2022-04-29,7,63
2022-04-30,13,65
2022-05-01,15,65
2022-05-02,12,69
2022-05-03,13,68
2022-05-04,12,77
2022-05-05,9,68
2022-05-06,9,82
2022-05-07,6,79
2022-05-08,8,76
2022-05-09,13,82
2022-05-10,5,73
2022-05-11,2,78
2022-05-12,8,73
2022-05-13,15,76
2022-05-14,10,84
2022-05-15,8,77
2022-05-16,9,77
2022-05-17,9,70
2022-05-18,12,85
2022-05-19,8,84
2022-05-20,8,85
2022-05-21,7,91
2022-05-22,7,80
2022-05-23,17,90
2022-05-24,13,98
2022-05-25,15,80
2022-05-26,5,78
2022-05-27,4,90
2022-05-28,7,86
2022-05-29,9,86
2022-05-30,6,83
2022-05-31,6,75
2022-06-01,11,79
2022-06-02,10,77
2022-06-03,4,80
2022-06-04,7,75
2022-06-05,10,83
2022-06-06,8,87
2022-06-07,4,76
2022-06-08,5,99
2022-06-09,10,81
2022-06-10,6,87
2022-06-11,7,91
2022-06-12,14,85
2022-06-13,8,100
2022-06-14,5,92
2022-06-15,5,88
2022-06-16,4,91
2022-06-17,6,99
2022-06-18,13,90
2022-06-19,7,92
2022-06-20,7,94
2022-06-21,5,87
2022-06-22,11,90
2022-06-23,10,102
2022-06-24,9,90
2022-06-25,11,105
2022-06-26,5,84
2022-06-27,6,103
2022-06-28,5,83
2022-06-29,6,97
2022-06-30,2,94
2022-07-01,5,92
2022-07-02,4,89
2022-07-03,2,86
2022-07-04,5,100
2022-07-05,8,91
2022-07-06,5,94
2022-07-07,9,94
2022-07-08,8,90
2022-07-09,8,84
2022-07-10,8,99
2022-07-11,11,99
2022-07-12,9,106
2022-07-13,7,93
2022-07-14,7,98
2022-07-15,4,89
2022-07-16,5,88
2022-07-17,3,87
2022-07-18,10,96
2022-07-19,9,99
2022-07-20,12,102
2022-07-21,5,102
2022-07-22,3,104
2022-07-23,2,102
2022-07-24,4,73
2022-07-25,6,103
2022-07-26,8,95
2022-07-27,2,98
2022-07-28,1,112
2022-07-29,4,97
2022-07-30,5,83
2022-07-31,4,101
2022-08-01,6,95
2022-08-02,2,94
2022-08-03,8,102
2022-08-04,2,91
2022-08-05,9,90
2022-08-06,11,90
2022-08-07,13,92
2022-08-08,9,85
2022-08-09,2,102
2022-08-10,8,98
2022-08-11,2,100
2022-08-12,1,108
2022-08-13,1,95
2022-08-14,7,102
2022-08-15,8,100
2022-08-16,7,109
2022-08-17,2,102
2022-08-18,9,103
2022-08-19,6,105
2022-08-20,0,102
2022-08-21,2,109
2022-08-22,7,103
2022-08-23,8,103
2022-08-24,4,104
2022-08-25,4,106
2022-08-26,6,108
2022-08-27,8,95
2022-08-28,7,102
2022-08-29,5,106
2022-08-30,3,100
2022-08-31,8,115
2022-09-01,3,102
2022-09-02,10,112
2022-09-03,6,102
2022-09-04,11,102
2022-09-05,6,108
2022-09-06,7,107
2022-09-07,2,106
2022-09-08,4,107
2022-09-09,7,106
2022-09-10,6,103
2022-09-11,6,103
2022-09-12,3,118
2022-09-13,1,103
2022-09-14,6,95
2022-09-15,9,114
2022-09-16,3,107
2022-09-17,2,103
2022-09-18,2,106
2022-09-19,3,100
2022-09-20,1,91
2022-09-21,7,110
2022-09-22,11,106
2022-09-23,6,95
2022-09-24,7,97
2022-09-25,9,91
2022-09-26,4,105
2022-09-27,2,97
2022-09-28,2,112
2022-09-29,9,105
2022-09-30,2,117
2022-10-01,3,106
2022-10-02,0,99
2022-10-03,1,100
2022-10-04,1,121
2022-10-05,6,116
2022-10-06,6,111
2022-10-07,2,99
2022-10-08,3,98
2022-10-09,7,108
2022-10-10,5,116
2022-10-11,4,104
2022-10-12,5,109
2022-10-13,7,117
2022-10-14,6,111
2022-10-15,6,107
2022-10-16,3,116
2022-10-17,7,114
2022-10-18,10,127
2022-10-19,2,107
2022-10-20,3,115
2022-10-21,9,119
2022-10-22,13,99
2022-10-23,9,107
2022-10-24,5,117
2022-10-25,4,103
2022-10-26,3,120
2022-10-27,13,112
2022-10-28,5,121
2022-10-29,4,105
2022-10-30,2,116
2022-10-31,1,123
2022-11-01,4,122
2022-11-02,2,110
2022-11-03,4,114
2022-11-04,3,118
2022-11-05,5,106
2022-11-06,1,118
2022-11-07,7,113
2022-11-08,7,106
2022-11-09,8,113
2022-11-10,12,121
2022-11-11,10,125
2022-11-12,4,110
2022-11-13,7,109
2022-11-14,6,132
2022-11-15,3,113
2022-11-16,7,124
2022-11-17,6,99
2022-11-18,8,98
2022-11-19,3,91
2022-11-20,10,104
2022-11-21,11,109
2022-11-22,0,107
2022-11-23,7,111
2022-11-24,7,117
2022-11-25,7,119
2022-11-26,5,102
2022-11-27,10,110
2022-11-28,5,105
2022-11-29,8,121
2022-11-30,12,115
2022-12-01,12,115
2022-12-02,6,107
2022-12-03,4,101
2022-12-04,5,102
2022-12-05,5,107
2022-12-06,7,108
2022-12-07,5,115
2022-12-08,7,127
2022-12-09,8,110
2022-12-10,3,102
2022-12-11,4,95
2022-12-12,3,111
2022-12-13,4,103
2022-12-14,7,100
2022-12-15,4,116
2022-12-16,8,107
2022-12-17,9,95
2022-12-18,4,104
2022-12-19,8,111
2022-12-20,5,112
2022-12-21,5,98
2022-12-22,9,109
2022-12-23,5,108
2022-12-24,2,92
2022-12-25,3,86
2022-12-26,6,99
2022-12-27,7,101
2022-12-28,5,82
2022-12-29,7,103
2022-12-30,11,107
2022-12-31,2,105
2023-01-01,5,100
2023-01-02,6,110
2023-01-03,1,125
2023-01-04,4,121
2023-01-05,5,126
2023-01-06,9,126
2023-01-07,8,111
2023-01-08,15,107
2023-01-09,10,119
2023-01-10,7,115
2023-01-11,9,121
2023-01-12,8,114
2023-01-13,9,123
2023-01-14,8,117
2023-01-15,7,123
2023-01-16,5,127
2023-01-17,6,110
2023-01-18,3,126
2023-01-19,4,115
2023-01-20,2,110
2023-01-21,2,116
2023-01-22,2,114
2023-01-23,4,98
2023-01-24,3,107
2023-01-25,3,124
2023-01-26,7,100
2023-01-27,1,115
2023-01-28,2,110
2023-01-29,5,118
2023-01-30,0,114
2023-01-31,6,123
2023-02-01,3,125
2023-02-02,2,109
2023-02-03,9,113
2023-02-04,3,117
2023-02-05,5,124
2023-02-06,8,124
2023-02-07,3,120
2023-02-08,2,121
2023-02-09,5,121
2023-02-10,7,113
2023-02-11,2,107
2023-02-12,2,114
2023-02-13,2,125
2023-02-14,4,127
2023-02-15,2,122
2023-02-16,12,120
2023-02-17,3,123
2023-02-18,4,120
2023-02-19,3,123
2023-02-20,3,113
2023-02-21,1,111
2023-02-22,1,115
2023-02-23,8,120
2023-02-24,8,116
2023-02-25,5,106
2023-02-26,7,110
2023-02-27,7,112
2023-02-28,6,115
2023-03-01,8,119
2023-03-02,3,119
2023-03-03,1,115
2023-03-04,6,116
2023-03-05,4,127
2023-03-06,2,112
2023-03-07,0,119
2023-03-08,3,110
2023-03-09,9,120
2023-03-10,5,134
2023-03-11,1,116
2023-03-12,1,120
2023-03-13,8,122
2023-03-14,2,118
2023-03-15,0,110
2023-03-16,3,111
2023-03-17,2,112
2023-03-18,2,107
2023-03-19,4,116
2023-03-20,3,114
2023-03-21,9,110
2023-03-22,5,108
2023-03-23,1,115
2023-03-24,4,117
2023-03-25,4,121
2023-03-26,5,104
2023-03-27,8,119
2023-03-28,2,127
2023-03-29,6,115
2023-03-30,1,118
2023-03-31,0,128
2023-04-01,1,105
2023-04-02,0,98
2023-04-03,6,110
2023-04-04,3,123
2023-04-05,4,107
2023-04-06,4,110
2023-04-07,3,109
2023-04-08,2,119
2023-04-09,7,109
2023-04-10,10,103
2023-04-11,5,119
2023-04-12,6,120
2023-04-13,8,124
2023-04-14,3,122
2023-04-15,5,105
2023-04-16,6,106
2023-04-17,1,114
2023-04-18,8,108
2023-04-19,6,126
2023-04-20,5,118
2023-04-21,4,113
2023-04-22,1,115
2023-04-23,3,112
2023-04-24,3,121
2023-04-25,5,129
2023-04-26,3,112
2023-04-27,2,106
2023-04-28,4,118
2023-04-29,3,120
2023-04-30,4,114
2023-05-01,9,108
2023-05-02,4,116
2023-05-03,4,113
2023-05-04,0,118
2023-05-05,6,114
2023-05-06,5,119
2023-05-07,6,112
2023-05-08,8,112
2023-05-09,5,116
2023-05-10,7,121
2023-05-11,1,127
2023-05-12,7,123
2023-05-13,11,127
2023-05-14,10,117
2023-05-15,0,123
2023-05-16,1,116
2023-05-17,3,118
2023-05-18,1,129
2023-05-19,3,126
2023-05-20,1,113
2023-05-21,3,116
2023-05-22,5,119
2023-05-23,6,116
2023-05-24,0,116
2023-05-25,5,117
2023-05-26,5,122
2023-05-27,6,123
2023-05-28,1,106
2023-05-29,2,123
2023-05-30,4,131
2023-05-31,5,129
2023-06-01,5,123
2023-06-02,3,121
2023-06-03,5,116
2023-06-04,4,112
2023-06-05,3,123
2023-06-06,4,115
2023-06-07,4,125
2023-06-08,3,116
2023-06-09,5,104
2023-06-10,7,110
2023-06-11,3,118
2023-06-12,3,111
2023-06-13,0,109
2023-06-14,0,119
2023-06-15,1,122
2023-06-16,1,108
2023-06-17,4,105
2023-06-18,5,116
2023-06-19,5,105
2023-06-20,3,122
2023-06-21,5,111
2023-06-22,4,109
2023-06-23,5,119
2023-06-24,3,109
2023-06-25,1,118
2023-06-26,7,104
2023-06-27,7,115
2023-06-28,4,113
2023-06-29,2,114
2023-06-30,6,113
2023-07-01,3,105
2023-07-02,7,117
2023-07-03,3,110
2023-07-04,5,121
2023-07-05,5,127
2023-07-06,5,119
2023-07-07,4,115
2023-07-08,5,120
2023-07-09,5,114
2023-07-10,7,116
2023-07-11,7,122
2023-07-12,3,114
2023-07-13,6,113
2023-07-14,6,128
2023-07-15,4,112
2023-07-16,1,112
2023-07-17,4,123
2023-07-18,5,113
2023-07-19,6,117
2023-07-20,5,114
2023-07-21,6,111
2023-07-22,3,108
2023-07-23,4,107
2023-07-24,4,131
2023-07-25,4,126
2023-07-26,2,116
2023-07-27,9,111
2023-07-28,3,111
2023-07-29,4,98
2023-07-30,1,115
2023-07-31,3,114
2023-08-01,3,106
2023-08-02,2,107
2023-08-03,1,103
2023-08-04,0,104
2023-08-05,6,108
2023-08-06,10,116
2023-08-07,4,106
2023-08-08,6,113
2023-08-09,5,109
2023-08-10,3,106
2023-08-11,2,111
2023-08-12,4,105
2023-08-13,1,113
2023-08-14,4,102
2023-08-15,4,112
2023-08-16,9,119
2023-08-17,3,131
2023-08-18,5,107
2023-08-19,2,122
2023-08-20,4,112
2023-08-21,4,108
2023-08-22,4,114
2023-08-23,2,119
2023-08-24,5,112
2023-08-25,3,123
2023-08-26,2,114
2023-08-27,2,123
2023-08-28,1,116
2023-08-29,2,125
2023-08-30,6,107
2023-08-31,3,124
2023-09-01,2,117
2023-09-02,3,111
2023-09-03,2,100
2023-09-04,3,95
2023-09-05,3,97
2023-09-06,1,98
2023-09-07,2,90
2023-09-08,3,100
2023-09-09,1,87
2023-09-10,3,98
2023-09-11,4,113
2023-09-12,2,104
2023-09-13,5,116
2023-09-14,3,118
2023-09-15,3,113
2023-09-16,3,115
2023-09-17,3,118
2023-09-18,1,116
2023-09-19,0,120
2023-09-20,3,114
2023-09-21,8,108
2023-09-22,6,120
2023-09-23,7,113
2023-09-24,5,116
2023-09-25,2,116
2023-09-26,4,118
2023-09-27,2,111
2023-09-28,0,112
2023-09-29,1,117
2023-09-30,5,99
2023-10-01,5,103
2023-10-02,3,118
2023-10-03,0,115
2023-10-04,5,116
2023-10-05,3,105
2023-10-06,5,118
2023-10-07,3,103
2023-10-08,3,121
2023-10-09,1,104
2023-10-10,3,121
2023-10-11,0,107
2023-10-12,2,113
2023-10-13,6,112
2023-10-14,4,95
2023-10-15,6,103
2023-10-16,4,96
2023-10-17,7,115
2023-10-18,7,110
2023-10-19,0,101
2023-10-20,1,109
2023-10-21,10,92
2023-10-22,8,106
2023-10-23,3,108
2023-10-24,2,105
2023-10-25,3,111
2023-10-26,5,103
2023-10-27,3,106
2023-10-28,3,97
2023-10-29,1,105
2023-10-30,2,104
2023-10-31,1,99
2023-11-01,0,99
2023-11-02,0,110
2023-11-03,2,99
2023-11-04,4,99
2023-11-05,4,95
2023-11-06,1,111
2023-11-07,3,100
2023-11-08,4,85
2023-11-09,1,99
2023-11-10,3,108
2023-11-11,1,86
2023-11-12,5,91
2023-11-13,5,100
2023-11-14,4,101
2023-11-15,2,101
2023-11-16,4,93
2023-11-17,4,90
2023-11-18,6,95
2023-11-19,3,94
2023-11-20,3,99
2023-11-21,1,103
2023-11-22,4,96
2023-11-23,2,102
2023-11-24,9,109
2023-11-25,7,99
2023-11-26,2,108
2023-11-27,3,111
2023-11-28,3,95
2023-11-29,2,106
2023-11-30,2,111
2023-12-01,0,105
2023-12-02,1,108
2023-12-03,3,101
2023-12-04,2,104
2023-12-05,7,72
2023-12-06,9,63
2023-12-07,2,67
2023-12-08,3,87
2023-12-09,7,70
2023-12-10,1,74
2023-12-11,1,77
2023-12-12,2,69
2023-12-13,2,73
2023-12-14,5,63
2023-12-15,4,72
2023-12-16,6,79
2023-12-17,9,68
2023-12-18,3,88
2023-12-19,6,66
2023-12-20,10,74
2023-12-21,4,73
2023-12-22,5,71
2023-12-23,2,67
2023-12-24,0,68
2023-12-25,1,66
2023-12-26,3,76
2023-12-27,6,66
2023-12-28,5,68
2023-12-29,4,81
2023-12-30,5,70
2023-12-31,3,83
2024-01-01,4,67
2024-01-02,0,72
2024-01-03,3,69
2024-01-04,1,72
2024-01-05,0,79
2024-01-06,3,69
2024-01-07,2,69
2024-01-08,3,76
2024-01-09,8,66
2024-01-10,1,76
2024-01-11,4,76
2024-01-12,1,83
2024-01-13,5,69
2024-01-14,5,64
2024-01-15,1,74
2024-01-16,0,59
2024-01-17,2,71
2024-01-18,1,76
2024-01-19,2,70
2024-01-20,2,71
2024-01-21,2,81
2024-01-22,3,79
2024-01-23,5,88
2024-01-24,7,92
2024-01-25,6,100
2024-01-26,4,88
2024-01-27,3,85
2024-01-28,2,84
2024-01-29,2,103
2024-01-30,1,82
2024-01-31,0,97
2024-02-01,0,90
2024-02-02,1,89
2024-02-03,1,84
2024-02-04,4,81
2024-02-05,2,102
2024-02-06,4,93
2024-02-07,5,82
2024-02-08,2,82
2024-02-09,1,79
2024-02-10,6,84
2024-02-11,2,83
2024-02-12,3,86
2024-02-13,3,88
2024-02-14,5,92
2024-02-15,3,95
2024-02-16,2,86
2024-02-17,1,87
2024-02-18,0,82
2024-02-19,0,90
2024-02-20,2,94
2024-02-21,2,86
2024-02-22,3,92
2024-02-23,2,87
2024-02-24,9,86
2024-02-25,11,89
2024-02-26,5,94
2024-02-27,4,89
2024-02-28,6,91
2024-02-29,3,91
2024-03-01,8,88
2024-03-02,2,91
2024-03-03,0,87
2024-03-04,1,93
2024-03-05,4,86
2024-03-06,4,86
2024-03-07,2,99
2024-03-08,0,95
2024-03-09,2,90
2024-03-10,1,90
2024-03-11,2,89
2024-03-12,1,96
2024-03-13,3,95
2024-03-14,0,91
2024-03-15,2,93
2024-03-16,0,102
2024-03-17,1,91
2024-03-18,1,93
2024-03-19,2,96
2024-03-20,3,97
2024-03-21,4,89
2024-03-22,2,82
2024-03-23,3,92
2024-03-24,2,99
2024-03-25,0,90
2024-03-26,1,100
2024-03-27,1,90
2024-03-28,2,94
2024-03-29,0,83
2024-03-30,3,92
2024-03-31,2,86
2024-04-01,3,82
2024-04-02,3,93
2024-04-03,6,96
2024-04-04,2,87
2024-04-05,4,98
2024-04-06,3,96
2024-04-07,4,98
2024-04-08,4,90
2024-04-09,2,89
2024-04-10,4,89
2024-04-11,1,85
2024-04-12,1,79
2024-04-13,4,87
2024-04-14,1,82
2024-04-15,1,76
2024-04-16,1,94
2024-04-17,3,86
2024-04-18,5,84
2024-04-19,5,91
2024-04-20,4,95
2024-04-21,3,78
2024-04-22,0,90
2024-04-23,5,87
2024-04-24,2,82
2024-04-25,0,86
2024-04-26,1,81
2024-04-27,1,78
2024-04-28,3,75
2024-04-29,3,93
2024-04-30,4,89
2024-05-01,6,91
2024-05-02,3,72
2024-05-03,1,96
2024-05-04,0,94
2024-05-05,1,84
2024-05-06,1,91
2024-05-07,3,82
2024-05-08,3,78
2024-05-09,5,89
2024-05-10,3,94
2024-05-11,4,82
2024-05-12,3,90
2024-05-13,1,91
2024-05-14,2,99
2024-05-15,0,97
2024-05-16,0,94
2024-05-17,1,81
